STARLINK-36246

Last updated on Fri Mar 27 2026 00:02:06 GMT+0000 (Coordinated Universal Time)

1 67939U 26037H 26085.33330001 .00077538 00000+0 13142-2 0 9998 2 67939 42.9987 98.6964 0001313 273.0300 87.0410 15.50584947 5867
UTC large
Height (km)
Speed (km/s)
/
Latitude / Longitude
Inclination (degrees)
Orbital Period (minutes)
Azimuth
Elevation
Range (km)
Doppler Factor

Next 0 passes for location: London (51.5072 / 0.1276)

Sorry there are no passes over London.